INMARSAT 3-F5

Last updated on Mon Sep 07 2026 00:02:56 GMT+0000 (Coordinated Universal Time)

1 25153U 98006B 26249.36718788 -.00000304 00000+0 00000+0 0 9996 2 25153 9.8702 52.4233 0004536 120.8967 250.3415 1.00268891104712
UTC large
Height (km)
Speed (km/s)
/
Latitude / Longitude
Inclination (degrees)
Orbital Period (minutes)
Azimuth
Elevation
Range (km)
Doppler Factor

Next 0 passes for location: London (51.5072 / 0.1276)

No passes found over London.
INMARSAT 3-F5